Flag Weather past 2 weeks in Horsens, Denmark

Now
37 °F

Fog.


Feels Like: 37 °F
Forecast: 39 / 46 °F
Wind: No wind

Location: Billund Lufthavn

Current Time: Nov 21, 2014 at 7:11:34 PM

Latest Report: Nov 21, 2014 at 6:20 PM


Visibility: 6 mi

Pressure: 30.27 "Hg

Humidity: 100%

Dew point: 37 °F

Location of HorsensLocation

Historic Weather in Horsens — Graph

°F

Horsens temperature yesterday

Maximum temperature yesterday: 43 °F (at 2:20 PM)
Minimum temperature yesterday: 34 °F (at 6:20 AM)
Average temperature yesterday: 38 °F

Past Weeks' High & Low Weather Summary

 TemperatureHumidityPressure
High54 °F (Nov 9, 1:20 PM)100% (Nov 6, 8:20 PM)30.42 "Hg (Nov 6, 8:20 PM)
Low28 °F (Nov 21, 5:20 AM)67% (Nov 9, 2:20 PM)29.62 "Hg (Nov 7, 4:20 PM)
Average46 °F93%29.91 "Hg
* Reported Nov 6 5:20 PM — Nov 21 5:50 PM, Horsens, Weather by CustomWeather, © 2014

Note: Actual official high and low records may vary slightly from our data, if they occured in-between our weather recording intervals... More about our weather records

Advertising

Horsens weather history for previous 24 hours

 ConditionsComfort  
Time TempWeatherWind HumidityBarometerVisibility
5:50 PM
Nov 21
39 °FPassing clouds.1 mph93%30.27 "HgN/A
5:20 PM39 °FPassing clouds.2 mph93%30.27 "HgN/A
4:20 PM41 °FOvercast.3 mph93%30.27 "HgN/A
3:50 PM41 °FOvercast.6 mph93%30.27 "HgN/A
3:20 PM41 °FPartly sunny.2 mph93%30.27 "HgN/A
2:50 PM41 °FQuite cool.2 mph87%30.30 "HgN/A
2:20 PM41 °FQuite cool.3 mph87%30.30 "HgN/A
1:50 PM41 °FQuite cool.3 mph93%30.30 "HgN/A
1:20 PM39 °FChilly.5 mph100%30.30 "HgN/A
12:50 PM41 °FQuite cool.3 mph93%30.33 "HgN/A
12:20 PM39 °FPassing clouds.3 mph100%30.33 "HgN/A
11:50 AM39 °FPassing clouds.3 mph100%30.33 "HgN/A
10:50 AM36 °FPassing clouds.2 mph100%30.33 "HgN/A
10:20 AM34 °FScattered clouds.2 mph100%30.33 "Hg4 mi
9:50 AM32 °FPartly sunny.2 mph100%30.33 "Hg4 mi
9:20 AM30 °FScattered clouds.2 mph100%30.33 "Hg1 mi
8:50 AM28 °FIce fog.3 mph100%30.33 "Hg0 mi
8:20 AM30 °FLight fog.1 mph100%30.33 "Hg0 mi
8:01 AM30 °FLight fog.1 mph100%30.33 "Hg1 mi
7:20 AM30 °FPassing clouds.2 mph100%30.33 "Hg5 mi
6:50 AM32 °FPassing clouds.1 mph93%30.33 "HgN/A
6:20 AM30 °FPassing clouds.5 mph100%30.33 "HgN/A
6:02 AM30 °FIce fog.3 mph100%30.33 "Hg2 mi
5:20 AM28 °FClear.1 mph100%30.33 "Hg1 mi
4:20 AM30 °FIce fog.2 mph100%30.33 "Hg0 mi
3:50 AM30 °FIce fog.No wind100%30.36 "Hg1 mi
3:20 AM32 °FFog.2 mph100%30.36 "Hg1 mi
2:50 AM34 °FClear.3 mph100%30.36 "Hg1 mi
2:20 AM36 °FLight fog.No wind100%30.36 "Hg1 mi
1:50 AM37 °FPassing clouds.1 mph100%30.36 "Hg3 mi
1:20 AM37 °FOvercast.1 mph100%30.36 "Hg4 mi
12:50 AM39 °FPassing clouds.1 mph93%30.36 "HgN/A
12:20 AM39 °FPassing clouds.3 mph93%30.39 "HgN/A
11:50 PM
Nov 20
39 °FPassing clouds.3 mph93%30.39 "HgN/A
11:20 PM37 °FPassing clouds.2 mph100%30.39 "HgN/A
10:50 PM39 °FPassing clouds.2 mph93%30.39 "HgN/A
10:20 PM37 °FPassing clouds.2 mph100%30.39 "HgN/A
9:20 PM37 °FPassing clouds.2 mph100%30.39 "HgN/A
8:50 PM37 °FFog.1 mph100%30.39 "HgN/A
8:20 PM37 °FFog.1 mph100%30.39 "HgN/A
7:50 PM36 °FFog.2 mph100%30.39 "HgN/A
7:20 PM36 °FFog.3 mph100%30.39 "HgN/A
Weather by CustomWeather, © 2014

See weather overviewHow to use our weather pages